| time (UTC) | temp C | wind direction | speed KPH | gust KPH | rain 1hr cm | rain 24hr cm | rain mn cm | humidity % | barometer mb |
| 20260503211903 | 11 | 57 | 0.0 | 8.0 | 0.00 | 0.71 | 0.51 | 3 | 1009.1 |
| 20260503210404 | 11 | 28 | 0.0 | 12.9 | 0.00 | 0.76 | 0.51 | 3 | 1009.0 |
| 20260503203403 | 11 | 52 | 1.6 | 16.1 | 0.00 | 0.81 | 0.51 | 3 | 1008.6 |
| 20260503201904 | 11 | 45 | 3.2 | 12.9 | 0.00 | 0.84 | 0.51 | 3 | 1008.1 |
| 20260503201404 | 11 | 33 | 3.2 | 12.9 | 0.00 | 0.84 | 0.51 | 3 | 1008.1 |
| 20260503200904 | 11 | 41 | 3.2 | 8.0 | 0.00 | 0.84 | 0.51 | 3 | 1008.1 |
| 20260503200403 | 11 | 44 | 0.0 | 9.7 | 0.00 | 0.84 | 0.51 | 3 | 1008.1 |
| 20260503194905 | 11 | 43 | 3.2 | 9.7 | 0.00 | 0.84 | 0.51 | 3 | 1008.0 |
| 20260503190905 | 12 | 49 | 3.2 | 9.7 | 0.00 | 0.84 | 0.51 | 3 | 1007.5 |
| 20260503184904 | 12 | 56 | 3.2 | 11.3 | 0.00 | 0.84 | 0.51 | 3 | 1007.3 |
| 20260503184404 | 12 | 23 | 3.2 | 12.9 | 0.00 | 0.84 | 0.51 | 3 | 1007.2 |
| 20260503181904 | 12 | 37 | 3.2 | 11.3 | 0.00 | 0.84 | 0.51 | 3 | 1007.1 |
| 20260503181404 | 12 | 53 | 4.8 | 11.3 | 0.00 | 0.84 | 0.51 | 3 | 1007.2 |
| 20260503180904 | 12 | 39 | 3.2 | 14.5 | 0.00 | 0.84 | 0.51 | 3 | 1007.1 |
| 20260503180404 | 12 | 39 | 1.6 | 11.3 | 0.00 | 0.84 | 0.51 | 3 | 1007.0 |
| 20260503174404 | 12 | 34 | 1.6 | 8.0 | 0.00 | 0.84 | 0.51 | 3 | 1007.0 |
| 20260503173904 | 12 | 38 | 4.8 | 11.3 | 0.00 | 0.84 | 0.51 | 3 | 1006.9 |
| 20260503173404 | 12 | 2 | 4.8 | 9.7 | 0.00 | 0.84 | 0.51 | 3 | 1006.9 |
| 20260503171905 | 12 | 32 | 1.6 | 4.8 | 0.00 | 0.84 | 0.51 | 3 | 1006.8 |
| 20260503170904 | 12 | 40 | 1.6 | 4.8 | 0.00 | 0.84 | 0.51 | 3 | 1006.8 |
| 20260503150904 | 12 | 350 | 1.6 | 4.8 | 0.00 | 0.84 | 0.51 | 3 | 1006.5 |
| 20260503131405 | 12 | 13 | 0.0 | 0.0 | 0.00 | 0.84 | 0.51 | 3 | 1006.5 |
| 20260503130904 | 12 | 13 | 0.0 | 3.2 | 0.00 | 0.84 | 0.51 | 3 | 1006.5 |
| 20260503110405 | 12 | 317 | 1.6 | 8.0 | 0.00 | 0.84 | 0.51 | 3 | 1006.2 |
| 20260503090404 | 11 | 309 | 0.0 | 11.3 | 0.00 | 0.84 | 0.51 | 3 | 1006.0 |
| 20260503070404 | 10 | 41 | 4.8 | 19.3 | 0.03 | 0.81 | 0.51 | 3 | 1005.8 |
| 20260503054903 | 10 | 317 | 0.0 | 4.8 | 0.05 | 0.79 | 0.48 | 3 | 1005.3 |
| 20260503054404 | 10 | 316 | 1.6 | 16.1 | 0.05 | 0.79 | 0.46 | 3 | 1005.3 |
| 20260503053904 | 10 | 326 | 4.8 | 16.1 | 0.05 | 0.79 | 0.46 | 3 | 1005.3 |
| 20260503053403 | 10 | 325 | 3.2 | 19.3 | 0.05 | 0.79 | 0.46 | 3 | 1005.3 |
| 20260503051904 | 10 | 336 | 3.2 | 14.5 | 0.05 | 0.79 | 0.46 | 3 | 1005.4 |
| 20260503051405 | 10 | 332 | 3.2 | 14.5 | 0.05 | 0.76 | 0.43 | 3 | 1005.4 |
| 20260503044904 | 10 | 355 | 8.0 | 14.5 | 0.03 | 0.74 | 0.43 | 3 | 1005.4 |
| 20260503044404 | 10 | 0 | 6.4 | 19.3 | 0.03 | 0.74 | 0.43 | 3 | 1005.4 |
| 20260503043904 | 10 | 346 | 3.2 | 16.1 | 0.03 | 0.74 | 0.43 | 3 | 1005.4 |
| 20260503043404 | 10 | 337 | 6.4 | 19.3 | 0.00 | 0.71 | 0.41 | 3 | 1005.4 |
| 20260503041904 | 10 | 325 | 0.0 | 16.1 | 0.00 | 0.71 | 0.41 | 3 | 1005.4 |
| 20260503041403 | 10 | 343 | 1.6 | 14.5 | 0.00 | 0.71 | 0.41 | 3 | 1005.4 |
| 20260503040904 | 10 | 331 | 6.4 | 19.3 | 0.00 | 0.71 | 0.41 | 3 | 1005.4 |
| 20260503040403 | 10 | 313 | 1.6 | 11.3 | 0.00 | 0.71 | 0.41 | 3 | 1005.5 |
| 20260503034403 | 10 | 339 | 4.8 | 16.1 | 0.00 | 0.71 | 0.41 | 3 | 1005.5 |
| 20260503033903 | 10 | 329 | 1.6 | 4.8 | 0.00 | 0.71 | 0.41 | 3 | 1005.5 |
| 20260503031903 | 10 | 325 | 3.2 | 19.3 | 0.03 | 0.71 | 0.41 | 3 | 1005.6 |
| 20260503030903 | 10 | 336 | 3.2 | 19.3 | 0.03 | 0.71 | 0.41 | 3 | 1005.6 |
| 20260503021904 | 11 | 309 | 1.6 | 9.7 | 0.05 | 0.71 | 0.38 | 3 | 1006.2 |
| 20260503021405 | 11 | 322 | 1.6 | 11.3 | 0.05 | 0.71 | 0.38 | 3 | 1006.2 |
| 20260503020405 | 11 | 310 | 1.6 | 11.3 | 0.05 | 0.71 | 0.38 | 3 | 1006.3 |
| 20260503013904 | 11 | 328 | 3.2 | 8.0 | 0.10 | 0.69 | 0.36 | 3 | 1006.5 |
| 20260503013403 | 11 | 331 | 1.6 | 9.7 | 0.10 | 0.69 | 0.36 | 3 | 1006.6 |
| 20260503011904 | 11 | 322 | 3.2 | 8.0 | 0.15 | 0.66 | 0.33 | 3 | 1006.8 |
| 20260503010903 | 11 | 338 | 3.2 | 8.0 | 0.15 | 0.64 | 0.33 | 3 | 1007.0 |
| 20260503004404 | 11 | 323 | 3.2 | 4.8 | 0.15 | 0.61 | 0.28 | 3 | 1007.1 |
| 20260503003905 | 11 | 348 | 1.6 | 4.8 | 0.15 | 0.58 | 0.25 | 3 | 1007.1 |
| 20260503003404 | 11 | 348 | 1.6 | 8.0 | 0.15 | 0.58 | 0.25 | 3 | 1007.2 |
| 20260502234905 | 11 | 1 | 0.0 | 4.8 | 0.18 | 0.46 | 0.15 | 3 | 1007.6 |
| 20260502230903 | 12 | 319 | 0.0 | 0.0 | 0.15 | 0.36 | 0.05 | 3 | 1007.7 |
| 20260502224904 | 12 | 319 | 0.0 | 0.0 | 0.13 | 0.28 | 0.28 | 3 | 1007.8 |
| 20260502224404 | 12 | 319 | 0.0 | 0.0 | 0.15 | 0.28 | 0.28 | 3 | 1007.8 |
| 20260502223904 | 12 | 318 | 0.0 | 0.0 | 0.13 | 0.25 | 0.25 | 3 | 1007.8 |
| 20260502221905 | 12 | 319 | 0.0 | 0.0 | 0.10 | 0.23 | 0.23 | 3 | 1007.8 |
| 20260502220405 | 12 | 319 | 0.0 | 0.0 | 0.13 | 0.20 | 0.20 | 3 | 1007.7 |
| 20260502214904 | 12 | 319 | 0.0 | 0.0 | 0.13 | 0.15 | 0.15 | 3 | 1008.0 |
| 20260502213404 | 12 | 319 | 0.0 | 0.0 | 0.10 | 0.13 | 0.13 | 3 | 1008.1 |